This is the latest recevied weather packets stored in our database for station/object KV9E. If no packets are shown the sender has not sent any weather packets the latest 10 day(s).
| Time | Temp. | Humidity | Pressure | Rain* | Wind** | Luminosity | Snow |
|---|---|---|---|---|---|---|---|
| 1777632201 | 6.67° C | 77% | 1013.6 hPa | 0 mm | - | 1 W/m² | - |
| 1777631897 | 6.67° C | 77% | 1013.7 hPa | 0 mm | - | 0 W/m² | - |
| 1777631596 | 6.67° C | 77% | 1013.4 hPa | 0 mm | - | 0 W/m² | - |
| 1777631293 | 6.67° C | 75% | 1013.4 hPa | 0 mm | - | 0 W/m² | - |
| 1777630990 | 6.67° C | 74% | 1013.3 hPa | 0 mm | - | 0 W/m² | - |
| 1777630685 | 6.67° C | 74% | 1013.2 hPa | 0 mm | - | 0 W/m² | - |
| 1777630383 | 6.67° C | 75% | 1013.4 hPa | 0 mm | - | 0 W/m² | - |
| 1777630081 | 6.67° C | 74% | 1013.6 hPa | 0 mm | - | 0 W/m² | - |
| 1777629777 | 7.22° C | 73% | 1013.7 hPa | 0 mm | - | 0 W/m² | - |
| 1777629474 | 6.67° C | 74% | 1013.7 hPa | 0 mm | - | 0 W/m² | - |
| 1777629170 | 6.67° C | 74% | 1013.7 hPa | 0 mm | - | 0 W/m² | - |
| 1777628867 | 7.22° C | 74% | 1013.6 hPa | 0 mm | - | 0 W/m² | - |
| 1777628563 | 7.22° C | 73% | 1013.4 hPa | 0 mm | - | 0 W/m² | - |
| 1777628259 | 7.22° C | 72% | 1013.5 hPa | 0 mm | - | 0 W/m² | - |
| 1777627954 | 7.22° C | 75% | 1013.5 hPa | 0 mm | - | 0 W/m² | - |
| 1777627649 | 6.67° C | 75% | 1013.7 hPa | 0 mm | - | 0 W/m² | - |
| 1777627348 | 6.67° C | 75% | 1013.5 hPa | 0 mm | - | 0 W/m² | - |
| 1777627046 | 6.67° C | 75% | 1013.5 hPa | 0 mm | - | 0 W/m² | - |
| 1777626742 | 6.67° C | 74% | 1013.3 hPa | 0 mm | - | 0 W/m² | - |
| 1777626438 | 6.67° C | 76% | 1013.5 hPa | 0 mm | - | 0 W/m² | - |
| 1777626137 | 6.67° C | 75% | 1013.5 hPa | 0 mm | - | 0 W/m² | - |
| 1777625831 | 6.67° C | 75% | 1013.5 hPa | 0 mm | - | 0 W/m² | - |
| 1777625528 | 6.67° C | 76% | 1013.5 hPa | 0 mm | - | 0 W/m² | - |
| 1777625223 | 6.67° C | 77% | 1013.4 hPa | 0 mm | - | 0 W/m² | - |
| 1777624920 | 6.67° C | 76% | 1013.6 hPa | 0 mm | - | 0 W/m² | - |
* Rain latest hour (hover to see other rain measurements)
** Current wind speed in m/s (hover to see current wind gust speed)